Flag for U.S.A. Weather past 2 weeks in Frankfort, Kentucky, U.S.A.

Now
67 °F

Clear.


Feels Like: 67 °F
Forecast: 62 / 83 °F
Wind: No wind

Location: Capital City Airport

Current Time: Aug 1, 2014 at 11:07:59 PM

Latest Report: Aug 1, 2014 at 9:53 PM


Visibility: 10 mi

Pressure: 30.04 "Hg

Humidity: 85%

Dew point: 62 °F

Location of FrankfortLocation

Historic Weather in Frankfort — Graph

°F

Frankfort temperature yesterday

Maximum temperature yesterday: 82 °F (at 3:53 PM)
Minimum temperature yesterday: 57 °F (at 4:53 AM)
Average temperature yesterday: 70 °F

Past Weeks' High & Low Weather Summary

 TemperatureHumidityPressure
High89 °F (Jul 21, 4:53 PM)100% (Jul 20, 4:01 AM)30.16 "Hg (Jul 20, 4:01 AM)
Low50 °F (Jul 29, 6:53 AM)37% (Jul 31, 5:53 PM)29.70 "Hg (Jul 27, 5:53 PM)
Average71 °F75%30.01 "Hg
* Reported Jul 17 9:53 PM — Aug 1 9:53 PM, Frankfort, Weather by CustomWeather, © 2014

Note: Actual official high and low records may vary slightly from our data, if they occured in-between our weather recording intervals... More about our weather records

Advertising

Frankfort weather history for previous 24 hours

 ConditionsComfort  
Time TempWeatherWind HumidityBarometerVisibility
9:53 PM
Aug 1
67 °FClear.No wind85%30.04 "Hg10 mi
8:53 PM74 °FSunny.No wind67%30.03 "Hg10 mi
7:53 PM82 °FSunny.5 mph43%30.02 "Hg10 mi
6:53 PM83 °FSunny.5 mph41%30.02 "Hg10 mi
5:53 PM85 °FMostly cloudy.3 mph37%30.01 "Hg10 mi
4:53 PM85 °FSunny.5 mph37%30.03 "Hg10 mi
3:53 PM83 °FOvercast.3 mph40%30.05 "Hg10 mi
2:53 PM83 °FMostly cloudy.7 mph41%30.06 "Hg10 mi
1:53 PM83 °FBroken clouds.8 mph40%30.07 "Hg10 mi
12:53 PM81 °FScattered clouds.No wind44%30.08 "Hg10 mi
11:53 AM82 °FSunny.3 mph43%30.09 "Hg10 mi
10:53 AM79 °FSunny.3 mph52%30.09 "Hg10 mi
9:53 AM73 °FSunny.No wind71%30.09 "Hg10 mi
8:53 AM67 °FSunny.No wind85%30.10 "Hg8 mi
7:53 AM61 °FSunny.No wind93%30.09 "Hg7 mi
6:53 AM59 °FClear.No wind93%30.09 "Hg7 mi
5:53 AM58 °FClear.3 mph97%30.07 "Hg7 mi
4:53 AM59 °FClear.No wind93%30.06 "Hg8 mi
3:53 AM60 °FClear.No wind93%30.05 "Hg8 mi
2:53 AM62 °FPassing clouds.No wind90%30.06 "Hg9 mi
1:53 AM62 °FClear.No wind90%30.07 "Hg10 mi
12:53 AM63 °FClear.No wind90%30.08 "Hg10 mi
11:53 PM
Jul 31
65 °FClear.No wind85%30.07 "Hg10 mi
Weather by CustomWeather, © 2014

See weather overviewHow to use our weather pages